Location: DARK SKY Beskydy - Park tmavé oblohy, www.darkskybeskydy.cz
(49.4926°N, 18.5016°E)
Time: 03:53:52
(UTC+02:00)

A-11 Canister half - Pass Details

Date: 25 February 2024
Orbit: 1513 x 1686 km, 47.2° (Epoch: 24 April)

Event Time Altitude Azimuth Distance (km) Brightness Sun altitude
Rises 01:25:41 0° 220° (SW) 4,929 - -46.0°
Reaches altitude 10° 01:29:01 10° 215° (SW) 3,943 - -45.7°
Maximum altitude 01:38:29 46° 146° (SE) 2,127 - -44.8°
Exits shadow 01:41:57 35° 103° (ESE) 2,446 10.0 -44.5°
Drops below altitude 10° 01:47:47 10° 78° (ENE) 3,884 11.5 -43.9°
Sets 01:51:01 0° 72° (ENE) 4,851 12.2 -43.6°
